Weather History for Sheboygan, WI

Change the Weather History Date:

Tuesday, December 18, 2012

  Actual Average Record
Temperature  
Mean Temperature 28 °F -  
Max Temperature 32 °F 31 °F 48 °F (2001)
Min Temperature 24 °F 18 °F -13 °F (1983)
Degree Days  
Heating Degree Days 37    
Moisture  
Dew Point 27 °F    
Average Humidity 92    
Maximum Humidity 100    
Minimum Humidity 78    
Precipitation  
Precipitation 0.08 in - - ()
Sea Level Pressure  
Sea Level Pressure 29.72 in    
Wind  
Wind Speed 3 mph (NNW)    
Max Wind Speed 9 mph    
Max Gust Speed -    
Visibility 5 miles    
Events Fog , Snow    
Averages and records for this station are not official NWS values.
T = Trace of Precipitation, MM = Missing Value Source: NWS Daily Summary

Daily Weather History Graph

Daily Weather History Graph

Search for Another Location

Airport:

Trip Planner

Search our weather history database for the weather conditions in past years. The results will help you decide how hot, cold, wet, or windy it might be!

Date:

Astronomy

Dec. 18, 2012 Rise Set
Actual Time 7:20 AM CST 4:15 PM CST
Civil Twilight 6:47 AM CST 4:48 PM CST
Nautical Twilight 6:11 AM CST 5:25 PM CST
Astronomical Twilight 5:36 AM CST 6:00 PM CST
Moon 10:50 AM CST (12/18) 10:53 PM CST (12/18)
Length of Visible Light 10h 01m
Length of Day
8h 55m
Waxing Crescent, 35% of the Moon is Illuminated
Dec 18
Waxing Crescent
Dec 19
First Quarter
Dec 28
Full
Jan 4
Last Quarter
Jan 11
New

Hourly Weather History & Observations

Time (CST) Temp. Windchill Dew Point Humidity Pressure Visibility Wind Dir Wind Speed Gust Speed Precip Events Conditions
12:53 AM 27.0 °F 23.0 °F 21.9 °F 81% 29.74 in 10.0 mi WNW 3.5 mph - N/A   Overcast
1:53 AM 27.0 °F - 21.9 °F 81% 29.75 in 10.0 mi Calm Calm - N/A   Overcast
2:53 AM 26.1 °F 21.9 °F 21.9 °F 84% 29.75 in 10.0 mi West 3.5 mph - N/A   Mostly Cloudy
3:53 AM 24.1 °F 19.7 °F 21.9 °F 91% 29.75 in 10.0 mi WNW 3.5 mph - N/A   Scattered Clouds
4:53 AM 25.0 °F 20.7 °F 23.0 °F 92% 29.75 in 10.0 mi West 3.5 mph - N/A   Overcast
5:53 AM 25.0 °F - 23.0 °F 92% 29.75 in 10.0 mi Calm Calm - N/A   Overcast
6:53 AM 25.0 °F - 23.0 °F 92% 29.77 in 9.0 mi Calm Calm - N/A   Overcast
7:53 AM 26.1 °F - 23.0 °F 88% 29.76 in 9.0 mi Calm Calm - N/A   Overcast
8:53 AM 28.0 °F - 25.0 °F 88% 29.76 in 10.0 mi Calm Calm - N/A   Clear
9:53 AM 28.9 °F 25.2 °F 23.0 °F 78% 29.77 in 10.0 mi East 3.5 mph - N/A   Clear
10:53 AM 30.0 °F 24.1 °F 24.1 °F 79% 29.76 in 9.0 mi South 5.8 mph - N/A   Mostly Cloudy
11:53 AM 30.0 °F 26.5 °F 26.1 °F 85% 29.72 in 10.0 mi South 3.5 mph - N/A   Overcast
12:53 PM 30.9 °F 26.2 °F 26.1 °F 82% 29.70 in 10.0 mi SE 4.6 mph - N/A   Overcast
1:39 PM 32.0 °F 27.5 °F 26.6 °F 80% 29.67 in 8.0 mi South 4.6 mph - N/A   Overcast
1:53 PM 32.0 °F 28.7 °F 27.0 °F 82% 29.69 in 8.0 mi SSW 3.5 mph - N/A   Overcast
2:25 PM 30.2 °F - 26.6 °F 86% 29.67 in 5.0 mi Calm Calm - 0.00 in Snow Light Snow
2:29 PM 30.2 °F - 26.6 °F 86% 29.67 in 1.8 mi Calm Calm - 0.00 in Snow Light Snow
2:39 PM 30.2 °F - 26.6 °F 86% 29.67 in 0.5 mi Calm Calm - 0.00 in Fog , Snow Snow
2:53 PM 30.0 °F 26.5 °F 28.0 °F 92% 29.70 in 0.5 mi WNW 3.5 mph - 0.01 in Fog , Snow Snow
3:19 PM 30.2 °F 26.7 °F 28.4 °F 93% 29.67 in 0.2 mi North 3.5 mph - 0.02 in Fog , Snow Heavy Snow
3:29 PM 30.2 °F 26.7 °F 28.4 °F 93% 29.66 in 0.2 mi North 3.5 mph - 0.04 in Fog , Snow Heavy Snow
3:44 PM 30.2 °F 26.7 °F 28.4 °F 93% 29.66 in 0.5 mi North 3.5 mph - 0.05 in Fog , Snow Snow
3:53 PM 30.0 °F 25.2 °F 28.9 °F 96% 29.69 in 0.5 mi North 4.6 mph - 0.05 in Fog , Snow Snow
4:03 PM 30.2 °F 25.4 °F 28.4 °F 93% 29.66 in 0.8 mi North 4.6 mph - 0.00 in Snow Light Snow
4:35 PM 30.2 °F 26.7 °F 30.2 °F 100% 29.67 in 1.2 mi North 3.5 mph - 0.01 in Snow Light Snow
4:53 PM 30.0 °F 26.5 °F 30.0 °F 100% 29.70 in 1.8 mi NNE 3.5 mph - 0.01 in Snow Light Snow
5:02 PM 30.2 °F 26.7 °F 30.2 °F 100% 29.67 in 2.0 mi NNE 3.5 mph - 0.00 in Snow Light Snow
5:33 PM 30.2 °F 25.4 °F 30.2 °F 100% 29.68 in 2.0 mi NNE 4.6 mph - 0.00 in Snow Light Snow
5:42 PM 30.2 °F 25.4 °F 30.2 °F 100% 29.68 in 2.0 mi NNE 4.6 mph - 0.00 in Snow Light Snow
5:53 PM 30.9 °F 25.2 °F 30.0 °F 96% 29.71 in 2.5 mi North 5.8 mph - 0.00 in Snow Light Snow
6:53 PM 30.9 °F 26.2 °F 30.9 °F 100% 29.73 in 2.0 mi North 4.6 mph - 0.01 in Snow Light Snow
7:10 PM 30.2 °F 22.6 °F 30.2 °F 100% 29.70 in 3.0 mi North 8.1 mph - 0.00 in Snow Light Snow
7:42 PM 30.2 °F 21.9 °F 30.2 °F 100% 29.71 in 5.0 mi North 9.2 mph - 0.00 in   Overcast
7:53 PM 30.9 °F 23.5 °F 30.0 °F 96% 29.75 in 5.0 mi North 8.1 mph - 0.00 in   Overcast
8:53 PM 30.9 °F 23.5 °F 30.0 °F 96% 29.76 in 3.0 mi North 8.1 mph - N/A   Overcast
9:14 PM 30.2 °F 22.6 °F 30.2 °F 100% 29.74 in 3.0 mi NNW 8.1 mph - N/A   Overcast
9:53 PM 30.9 °F 23.5 °F 30.0 °F 96% 29.79 in 5.0 mi NW 8.1 mph - N/A   Overcast
10:20 PM 30.2 °F 24.3 °F 30.2 °F 100% 29.76 in 5.0 mi NNW 5.8 mph - N/A   Overcast
10:53 PM 30.9 °F - 30.9 °F 100% 29.80 in 6.0 mi Calm Calm - N/A   Overcast
11:18 PM 30.2 °F 23.4 °F 28.4 °F 93% 29.79 in 5.0 mi NW 6.9 mph - N/A   Overcast
11:53 PM 30.9 °F 24.3 °F 28.9 °F 92% 29.83 in 7.0 mi NW 6.9 mph - N/A   Overcast